Lapse_Rate
0.7 0.6 0.5 0.7 0.9 1.6 2.6 3.1 3.1 3.0 3.0 3.4 3.6 3.7 3.7 3.4 2.9 2.1 2.3 4.6 5.1 5.7 5.5 5.1 6.8 6.0 6.2 6.0 6.5 4.7 5.7 5.2 6.0 6.5 6.5 6.5 6.5 6.5 6.5 6.5 6.5 6.5 6.5 6.5 6.5 6.5 6.5 6.1 6.1 6.5 5.7 5.3 4.4 3.6
0.5 0.6 0.6 0.9 1.5 2.8 3.2 3.3 3.2 3.1 3.1 3.5 3.6 3.7 3.7 3.3 3.1 3.0 1.5 4.0 5.1 4.5 4.2 5.7 6.0 4.6 4.6 3.9 5.6 4.6 4.8 5.7 4.3 6.5 6.5 6.5 6.5 6.5 6.5 6.5 6.5 6.5 6.5 6.5 6.5 6.5 5.9 6.0 5.4 4.4 3.8 4.2 5.0 5.4
0.6 0.8 0.9 1.3 2.8 3.2 3.2 3.0 2.8 2.9 3.2 3.6 3.7 3.7 3.5 3.4 3.4 3.4 1.1 2.2 3.4 5.1 4.6 2.4 3.4 4.5 5.3 4.6 5.2 4.9 3.5 4.4 3.9 3.8 4.6 6.4 6.5 6.5 6.5 6.5 6.5 6.5 5.8 6.5 6.5 6.5 6.2 4.5 4.5 4.4 4.8 4.7 4.7 4.3
0.9 1.1 1.2 1.7 2.5 2.6 2.7 2.6 2.8 3.3 3.6 3.8 3.7 3.5 3.4 3.3 3.3 3.3 1.3 2.8 3.6 6.4 6.5 3.2 4.5 3.9 3.6 2.7 4.3 4.9 4.7 4.4 4.5 3.3 5.5 6.5 6.5 5.6 6.5 6.5 6.5 5.9 6.3 6.5 6.5 6.3 5.5 5.1 4.5 3.7 4.3 4.2 4.4 2.9
1.2 1.5 1.7 2.3 2.7 2.7 2.9 3.0 3.0 3.3 3.6 3.5 3.4 3.5 3.4 3.2 2.9 2.6 1.4 2.8 5.4 6.3 6.5 5.3 3.9 1.8 2.4 2.5 3.6 4.3 5.5 5.0 4.3 4.6 6.0 6.5 5.1 5.9 6.0 6.4 6.5 5.7 6.5 6.5 6.5 5.0 5.2 5.2 4.7 4.4 4.1 4.6 4.4 4.4
1.7 2.1 2.4 2.7 3.0 3.1 3.3 3.7 3.5 3.4 3.4 3.2 3.1 3.2 3.3 3.2 2.9 1.2 4.1 5.9 5.6 6.0 5.3 6.4 3.3 1.4 2.6 3.9 5.5 4.7 5.1 5.5 4.5 2.9 4.7 4.1 4.8 5.1 6.5 6.5 5.7 3.7 3.7 3.4 5.2 5.0 3.6 3.9 4.1 4.8 6.3 4.9 5.6 3.8
2.1 2.6 2.8 3.2 3.3 3.3 3.3 3.4 3.4 3.3 3.2 2.9 2.8 2.8 2.8 3.0 1.8 2.1 3.9 4.3 4.2 3.0 6.0 6.4 5.6 3.6 5.1 5.8 5.1 4.6 5.0 5.1 3.1 3.1 4.5 4.1 4.0 5.0 6.5 6.5 5.1 4.1 3.7 3.8 3.6 5.1 4.7 4.3 5.4 5.3 5.1 5.8 4.3 5.2
3.0 3.4 3.6 3.5 3.6 3.5 3.3 3.3 3.2 2.9 2.7 2.6 2.5 2.5 2.4 2.6 2.0 1.5 2.4 3.7 3.4 4.6 5.9 6.5 6.4 4.7 6.3 5.6 4.1 3.4 3.3 4.2 3.3 3.8 3.8 5.3 4.1 4.3 6.5 5.6 3.7 4.0 5.0 4.1 3.5 3.3 3.5 3.9 4.0 5.1 4.2 4.9 4.5 3.0
4.1 3.8 3.9 3.8 3.7 3.5 3.4 3.2 3.1 2.8 2.6 2.4 2.5 2.3 1.4 1.4 2.7 5.0 5.2 4.8 5.6 5.7 6.1 6.3 6.5 6.5 3.8 4.3 3.4 3.0 3.4 6.4 3.3 6.5 6.1 5.1 6.5 6.5 6.4 4.6 4.1 5.0 5.0 4.1 4.4 3.9 4.0 4.2 4.2 5.2 5.2 4.8 2.7 2.3
4.0 4.0 4.0 3.8 3.6 3.4 3.2 3.3 3.1 2.7 2.9 2.9 2.3 3.6 5.5 6.0 5.9 5.8 5.8 6.0 6.0 5.9 5.5 6.1 4.8 6.5 4.7 3.8 4.6 4.6 4.3 6.5 6.5 6.3 4.2 6.5 6.5 3.5 3.3 3.1 2.9 2.6 3.1 4.3 4.8 3.9 4.0 4.2 3.5 3.8 4.9 3.6 2.2 3.1
4.2 4.2 4.0 3.8 3.5 3.4 3.5 3.4 3.2 3.1 5.4 3.7 3.5 5.3 3.5 5.1 4.7 4.7 6.1 6.5 6.6 6.6 5.8 4.6 4.5 5.9 3.9 6.3 6.5 3.8 6.5 6.5 6.5 6.5 6.5 6.5 6.5 6.2 4.7 4.5 3.7 3.5 3.3 3.5 3.6 2.9 3.9 6.1 4.1 4.2 3.0 3.1 3.5 3.2
4.3 4.2 4.0 3.7 3.7 3.7 3.7 3.6 3.5 3.0 2.9 2.9 3.0 2.3 2.5 4.8 5.5 6.2 6.5 5.9 6.5 6.5 5.5 5.8 4.1 3.7 3.9 3.3 5.1 4.8 6.5 6.5 6.5 5.7 6.5 6.5 6.5 4.9 4.3 4.6 4.6 3.8 3.7 3.7 3.9 4.9 4.5 3.7 3.5 2.6 2.6 2.8 2.6 3.2
4.3 4.2 3.9 3.9 3.9 4.0 4.0 4.2 4.0 3.7 3.8 4.9 4.6 6.5 5.8 5.3 6.5 6.5 6.5 6.5 6.5 5.1 4.6 4.5 5.5 3.8 2.8 4.4 5.0 6.4 6.5 6.5 5.6 6.5 6.5 6.5 5.2 4.7 3.7 4.7 5.0 5.0 4.7 5.5 5.6 5.0 4.1 4.0 3.0 2.5 2.1 1.5 2.7 3.2
4.2 4.1 4.2 4.1 4.2 4.3 4.5 4.7 4.5 4.3 3.4 6.2 6.7 6.5 6.5 6.5 6.5 6.5 6.5 6.4 4.9 4.0 4.6 3.5 4.0 4.5 3.6 5.9 6.3 6.5 6.5 6.4 6.5 6.5 6.5 6.5 4.7 4.2 4.3 3.8 3.2 5.3 4.5 4.1 4.3 4.9 4.5 4.9 3.4 3.2 3.6 2.5 3.6 3.7
4.1 4.3 4.2 4.5 5.2 5.1 5.0 4.7 4.5 4.1 4.5 6.6 6.3 6.5 6.5 5.3 6.3 5.6 5.8 5.6 4.7 4.2 4.0 3.7 4.5 4.7 6.4 6.5 6.5 6.5 6.5 6.5 6.5 6.5 6.5 5.1 4.0 4.0 3.5 4.1 4.8 4.9 4.9 4.8 4.3 3.7 4.3 4.6 3.2 3.0 2.1 2.8 2.8 3.0
4.2 4.5 4.6 5.9 5.5 5.1 4.7 4.5 4.3 4.8 5.9 5.8 5.7 6.2 4.5 5.3 5.3 4.5 4.6 3.6 3.6 4.4 4.8 3.5 6.2 6.5 6.5 6.5 6.5 6.5 6.5 6.5 6.5 6.5 6.0 5.0 3.8 3.6 3.8 3.6 4.2 4.6 4.4 3.9 4.1 5.4 4.8 5.3 3.6 3.9 3.7 3.6 4.2 4.3
4.6 4.4 5.9 5.8 5.6 5.5 5.4 4.6 5.9 6.6 6.5 6.6 4.8 4.3 4.5 5.2 4.8 4.3 5.2 4.7 5.3 3.5 6.4 5.5 6.5 6.5 6.5 6.5 6.5 6.5 6.5 6.5 6.3 5.8 4.5 3.6 3.6 3.0 3.3 3.1 3.3 3.7 2.5 2.9 3.8 3.5 4.1 3.1 2.7 3.2 3.7 3.6 3.2 3.9
3.8 6.1 6.1 5.7 5.3 5.8 5.2 4.3 5.6 6.5 6.2 5.1 4.9 4.3 5.6 5.5 5.6 5.4 5.0 4.2 5.4 5.7 4.5 6.3 5.1 6.5 6.5 6.5 6.5 6.4 6.1 5.4 4.6 3.9 3.1 3.0 3.2 2.4 3.1 2.5 3.5 2.6 2.9 2.3 3.1 2.3 2.2 2.3 3.4 3.3 2.2 2.0 2.9 3.0
5.0 4.8 5.3 5.5 5.1 3.7 6.1 6.7 5.5 5.7 5.1 4.3 4.8 4.5 5.6 5.2 5.1 4.0 3.8 3.7 3.6 4.3 3.5 4.6 6.5 6.5 6.5 6.0 5.8 5.0 4.5 3.4 3.3 4.4 5.4 4.6 4.1 2.9 2.4 2.6 3.6 2.6 1.6 2.3 2.4 2.2 1.7 1.6 1.8 1.9 1.6 1.3 1.0 1.1
4.8 4.8 5.3 5.4 5.5 5.1 6.7 5.4 5.9 5.5 5.2 4.2 4.4 4.5 5.4 5.4 4.3 4.2 3.7 5.0 4.6 4.4 5.7 6.4 6.3 4.6 5.0 5.0 5.3 5.4 2.7 2.5 2.9 3.3 4.6 4.2 4.5 4.6 4.2 4.3 3.3 2.4 1.8 2.0 2.1 1.3 2.3 2.8 2.7 3.1 2.8 2.9 2.9 3.1
5.8 6.6 6.6 4.7 4.7 4.2 5.1 5.4 4.9 4.6 4.4 4.5 4.4 4.2 4.0 3.9 4.9 5.6 3.9 4.7 5.0 5.2 5.0 3.9 4.3 5.1 4.7 4.6 4.1 3.5 3.3 3.5 3.8 3.7 3.6 4.0 4.7 5.2 3.7 2.6 3.0 2.2 2.2 2.3 2.5 3.3 2.7 2.6 2.3 2.6 2.7 3.0 3.0 3.2
6.2 7.2 5.8 5.4 6.8 6.7 5.4 4.8 4.8 4.4 4.5 4.3 4.1 5.2 5.0 4.4 3.9 3.9 3.2 3.8 3.4 3.6 3.8 3.6 3.7 4.2 3.6 3.9 3.7 4.0 4.1 4.1 3.9 3.9 3.0 2.9 4.2 5.2 4.6 3.3 3.6 1.9 2.1 2.6 3.1 3.2 3.1 1.9 2.5 2.8 2.1 2.7 3.2 3.7
6.2 5.7 5.5 6.5 6.3 4.9 3.8 4.6 5.9 6.0 6.2 5.0 4.0 5.7 5.9 5.4 4.5 3.8 5.1 4.8 5.2 4.3 4.2 3.9 4.7 4.9 4.5 4.5 4.5 4.5 4.7 4.3 3.9 3.7 3.4 2.9 3.3 3.0 2.3 2.6 2.1 2.1 2.1 2.3 1.9 2.5 2.3 0.8 2.1 3.5 3.4 3.1 3.3 3.5
5.6 5.7 6.5 6.1 5.7 5.0 5.3 5.7 6.0 6.0 6.0 6.0 6.4 6.5 6.2 4.2 4.4 4.7 6.5 5.7 5.3 5.1 5.1 5.6 4.6 4.5 3.5 3.9 4.0 4.0 3.9 4.9 3.7 3.6 3.1 2.9 3.0 3.5 2.6 2.6 2.8 2.4 2.1 2.2 1.5 2.2 2.4 3.3 3.0 3.3 3.6 3.7 3.4 3.1
5.8 5.5 4.3 5.7 4.4 6.2 6.5 6.4 6.3 6.2 6.5 6.5 6.5 6.5 6.1 4.6 6.5 6.5 6.5 6.2 5.7 5.4 4.6 4.2 4.8 4.3 4.1 3.8 3.8 4.2 4.5 4.5 4.4 4.0 3.8 2.8 3.1 2.9 2.6 2.7 3.5 2.5 2.0 2.3 3.0 3.4 3.1 3.1 3.2 4.0 4.5 4.1 4.7 4.2
6.5 5.8 5.2 6.1 5.8 6.3 6.4 6.5 6.5 6.5 6.5 6.5 6.4 4.8 4.5 6.2 6.5 6.5 6.4 6.2 5.9 5.3 5.4 5.4 4.6 3.7 3.6 4.1 4.5 4.6 4.3 3.4 3.4 3.9 3.8 3.1 3.6 3.4 3.8 4.5 3.6 4.5 3.1 3.4 3.8 4.3 4.2 4.0 4.1 4.6 4.7 5.0 3.4 4.2
6.5 6.3 4.9 4.6 5.8 6.2 6.1 5.4 5.4 5.8 6.5 6.5 6.5 6.3 6.5 6.5 6.5 6.2 5.1 4.5 5.0 5.2 4.8 4.6 4.8 4.7 4.4 5.3 4.7 4.8 4.2 3.6 3.3 3.3 3.4 3.3 4.0 3.3 3.5 4.7 5.5 4.3 3.8 4.7 4.3 5.1 5.1 4.8 4.8 4.7 4.3 3.9 3.6 3.7
6.5 5.8 6.4 6.0 6.0 6.0 6.4 6.4 6.5 6.5 6.5 5.3 5.5 6.5 6.5 6.5 6.5 4.7 3.9 4.5 4.8 4.2 3.9 4.0 3.9 4.3 4.4 4.5 4.2 3.8 3.8 3.5 3.0 3.2 3.2 4.7 4.9 4.2 4.9 4.7 4.9 2.5 3.4 3.9 4.4 4.7 4.6 4.8 4.9 5.0 4.7 4.4 3.7 3.8
5.9 5.3 5.8 6.1 6.3 6.0 6.1 6.2 6.0 4.9 4.7 5.7 6.4 6.5 5.4 4.5 5.1 5.2 4.5 4.4 4.2 4.1 3.6 3.4 3.6 4.2 5.1 4.9 4.6 3.8 3.8 3.4 4.1 4.4 3.6 4.9 3.9 4.1 3.3 3.9 4.0 3.9 3.7 4.1 2.8 4.5 3.8 2.2 2.2 3.5 4.6 4.1 3.6 3.8
5.7 5.9 6.3 6.6 6.4 6.5 5.9 5.2 5.1 5.2 6.1 6.5 5.3 4.0 4.1 4.0 4.1 4.3 4.4 4.3 3.3 3.1 3.2 3.7 3.8 4.8 5.4 4.7 5.5 6.1 3.7 5.1 3.6 2.6 3.9 4.2 4.1 3.2 3.0 3.9 4.4 4.2 3.8 4.1 4.7 4.1 2.3 3.8 3.0 4.3 4.0 3.9 3.6 3.8
5.5 5.6 6.4 6.3 6.2 6.2 6.4 6.4 6.5 6.0 6.5 6.0 5.2 5.2 5.7 4.9 3.4 2.9 3.8 3.9 4.2 4.3 4.2 4.8 4.9 5.1 5.9 4.8 4.2 3.8 3.2 2.3 2.3 2.5 2.4 2.7 2.5 2.5 3.3 3.6 4.1 3.9 4.6 4.7 4.6 4.4 4.4 4.2 4.1 4.1 4.4 4.5 4.8 4.9
5.9 5.5 5.4 6.5 5.6 5.8 5.3 4.8 5.4 5.8 5.9 6.2 6.2 6.2 5.8 5.5 6.0 5.6 5.7 5.8 5.3 5.2 5.2 5.2 5.7 5.8 5.3 4.5 4.1 3.1 1.7 2.0 1.6 1.5 1.7 1.6 1.8 2.6 2.9 3.3 4.9 5.1 4.9 4.8 5.0 4.9 4.8 4.6 4.8 4.6 4.7 5.0 5.1 5.5
5.7 5.8 5.7 5.6 6.1 6.2 5.1 5.8 6.3 6.4 6.3 6.5 6.2 6.1 5.9 5.7 5.8 4.4 3.5 3.9 4.2 5.7 5.3 6.0 5.1 4.4 3.8 3.5 3.3 2.9 2.7 2.2 1.2 0.1 0.1 -1.2 -1.7 0.1 2.3 3.0 4.9 5.6 5.4 4.9 4.8 5.0 5.3 5.8 5.7 5.4 5.1 4.7 4.5 4.7
Wind_Speed
15 15 15 14 13 8 8 9 9 10 12 14 15 15 16 17 18 9 5 3 2 3 8 5 2 0 4 1 3 5 6 5 4 6 3 3 2 3 3 2 4 3 2 3 2 4 6 3 9 6 7 3 3 6
15 14 13 12 6 7 7 8 9 11 12 13 14 14 15 16 16 14 2 9 8 3 7 8 18 22 16 21 3 3 3 1 4 3 2 2 2 2 3 3 5 2 3 2 2 2 3 2 4 4 5 5 3 3
13 12 12 6 6 6 7 8 9 10 12 13 13 13 14 15 14 10 3 3 3 3 6 3 5 7 8 7 15 3 3 6 2 4 2 3 2 3 2 3 4 3 3 2 2 4 4 7 7 5 2 0 5 1
12 12 7 6 6 6 7 8 10 11 12 12 13 14 14 15 14 12 2 2 2 3 3 7 6 14 12 7 10 17 12 4 2 2 3 2 2 5 4 4 5 5 3 3 5 6 5 4 5 2 7 11 13 5
13 8 5 5 6 7 8 10 11 12 13 13 13 14 15 16 17 15 7 5 6 2 3 7 17 6 9 7 9 15 15 12 4 1 2 3 2 2 3 1 3 4 5 4 4 5 4 5 4 7 8 7 2 4
7 5 4 5 6 7 10 12 12 13 14 15 15 15 15 15 17 3 3 1 8 3 2 4 5 7 12 8 8 4 4 5 4 4 4 3 5 1 3 3 4 4 5 7 5 2 6 6 5 5 3 4 3 5
5 4 5 6 7 8 10 12 13 15 16 17 17 16 16 14 2 1 3 2 2 5 1 5 5 6 7 4 2 2 2 2 3 3 3 4 4 4 3 10 7 9 7 8 7 3 5 5 3 0 5 6 8 11
5 5 5 6 8 9 10 13 15 17 19 20 19 19 17 17 10 5 3 18 9 2 2 3 5 5 5 3 4 1 2 3 2 4 1 3 1 2 4 6 7 7 5 6 9 7 7 4 5 2 7 3 9 12
5 5 6 7 8 9 12 15 17 21 23 23 21 21 2 1 1 2 5 15 5 2 2 2 3 4 4 3 3 4 2 2 3 2 2 3 2 5 7 8 6 7 4 7 6 5 4 6 6 6 6 3 11 8
5 6 7 6 7 9 12 15 18 23 29 26 2 1 1 2 10 8 1 1 0 1 1 3 3 4 1 3 3 3 1 2 2 4 2 2 4 6 5 1 3 7 7 7 3 7 5 6 7 8 4 5 5 10
6 7 6 6 8 10 12 15 18 23 13 3 4 2 3 4 1 1 2 2 2 3 3 4 5 4 3 1 3 2 3 2 2 4 1 2 3 3 5 4 6 7 7 5 6 9 13 8 6 6 7 7 7 9
6 5 6 7 9 11 12 13 14 6 1 3 2 4 3 2 1 1 3 2 4 3 3 3 4 4 4 1 2 3 2 2 4 1 1 2 2 5 6 6 6 7 6 7 6 8 12 10 9 7 8 10 8 10
6 6 7 9 10 11 13 13 12 10 11 1 1 3 1 2 1 3 2 1 2 2 3 3 4 2 4 2 2 2 3 4 2 1 2 2 4 7 7 5 7 10 10 9 9 13 11 7 7 7 6 7 9 9
5 7 9 12 14 14 13 10 8 6 1 1 2 4 3 3 4 4 2 2 4 3 4 3 3 1 2 2 1 2 4 2 2 1 1 3 5 7 7 5 3 3 5 10 5 12 15 9 9 8 8 7 9 10
5 9 12 16 11 7 8 8 7 1 1 3 3 3 5 5 3 2 2 2 3 1 2 3 2 2 2 3 2 3 4 3 3 3 2 5 7 6 7 9 7 4 9 9 2 7 10 6 9 7 6 7 6 3
6 13 6 7 9 8 9 4 2 2 2 3 4 3 4 3 4 3 2 3 2 1 2 3 2 3 2 4 3 2 7 2 3 4 6 8 8 8 9 9 9 5 4 11 4 3 8 7 7 7 7 4 5 3
4 2 3 6 11 13 6 2 2 4 3 4 4 4 5 6 5 4 2 2 0 3 1 2 2 1 2 2 3 3 3 3 5 7 7 9 6 8 8 8 8 9 9 8 8 7 13 8 12 8 6 7 4 11
2 2 5 11 14 3 1 3 2 3 6 5 3 5 4 3 3 4 2 2 2 2 3 3 2 1 2 3 2 3 3 5 6 7 8 8 7 7 6 8 9 6 6 7 8 6 5 12 4 1 4 2 4 4
4 10 11 10 6 2 2 3 3 3 5 3 4 4 3 4 4 3 2 3 3 4 4 2 3 3 3 4 5 7 6 4 5 7 7 6 7 7 7 7 6 4 5 6 7 4 3 3 3 5 5 8 6 6
15 18 15 8 2 2 3 4 3 3 3 3 2 4 3 3 4 3 4 2 2 3 3 2 4 4 4 4 5 8 4 3 2 5 7 6 6 9 8 9 3 5 4 7 3 8 7 2 2 2 4 7 8 5
5 3 2 8 2 4 3 3 3 4 4 2 4 3 4 3 4 6 4 3 3 4 4 4 4 4 6 3 2 2 5 3 3 3 4 6 8 7 5 4 3 3 4 4 4 7 9 6 4 1 3 4 3 4
2 3 1 4 3 3 3 4 3 3 1 4 3 3 4 3 3 4 2 2 3 4 4 3 3 2 4 5 5 4 5 6 5 4 7 5 6 8 7 2 0 1 1 2 3 3 2 4 5 2 3 4 3 3
7 2 2 3 3 1 6 1 3 3 2 3 4 3 2 3 3 2 1 1 2 3 2 3 2 2 4 5 5 5 4 5 4 4 5 4 2 2 3 3 3 3 4 2 3 2 4 7 2 1 3 4 3 2
2 2 3 3 5 4 3 3 3 2 2 2 3 4 4 3 2 1 2 3 2 3 2 2 1 3 4 5 3 3 4 5 4 2 4 3 3 1 2 3 2 2 3 4 4 3 4 4 2 2 2 3 2 3
2 4 4 5 4 3 4 3 4 3 3 3 3 4 3 2 2 2 1 1 2 3 4 4 3 3 2 4 4 4 4 0 2 1 2 2 0 1 3 4 4 3 2 4 5 5 4 4 5 4 3 3 5 6
3 4 7 4 3 4 2 2 3 2 2 3 4 3 0 0 2 3 2 4 1 2 2 2 3 4 4 3 5 3 4 3 3 1 3 3 2 2 0 2 2 4 4 2 4 5 6 6 6 8 6 7 9 7
3 5 5 4 2 1 2 2 1 2 3 3 3 3 2 2 1 3 2 3 3 3 2 2 3 4 5 7 4 3 3 4 2 4 5 4 2 4 3 2 2 3 3 4 4 5 5 5 6 6 6 6 7 6
4 4 4 3 2 2 2 2 3 4 4 2 4 2 2 3 2 2 4 2 1 2 4 5 5 4 3 3 3 3 3 4 6 5 4 2 3 4 5 4 3 8 3 4 3 5 5 4 4 5 7 8 9 9
4 4 3 5 3 3 4 4 3 3 3 0 3 4 4 2 1 1 3 2 1 1 3 4 6 4 2 4 3 2 3 4 7 11 9 4 5 5 5 4 4 4 4 3 5 7 10 8 8 9 11 7 5 7
6 4 3 3 3 4 4 5 4 5 3 4 1 3 3 3 3 2 4 5 4 5 5 4 4 3 2 1 2 5 5 6 6 4 4 4 3 5 5 5 5 5 5 5 6 7 13 11 11 10 10 7 6 6
3 3 5 6 6 7 8 5 3 3 1 2 2 4 8 4 4 3 3 3 4 3 3 3 3 2 2 4 2 5 4 4 5 7 6 4 4 5 5 5 5 5 8 9 8 7 8 8 7 7 8 9 8 7
4 6 4 4 4 1 3 3 3 4 3 2 2 2 1 1 3 2 2 1 2 3 4 3 2 4 4 4 6 6 7 4 5 5 7 5 5 5 5 5 7 7 8 9 9 8 9 9 7 7 8 9 8 8
1 1 2 3 3 2 2 1 2 3 3 2 2 3 3 3 2 2 2 3 3 2 3 2 5 5 7 7 7 5 6 4 5 4 4 8 10 9 5 5 7 8 8 7 7 7 9 9 8 8 7 7 8 8
Wind_Direction
323 327 332 331 335 341 341 339 341 346 349 350 352 353 357 358 358 3 277 319 47 274 282 253 221 176 323 255 234 306 345 350 358 34 33 314 3 283 309 293 299 180 244 182 127 176 194 120 309 175 202 241 35 1
319 325 329 333 338 333 336 338 341 342 344 346 347 348 353 356 357 357 309 327 317 211 252 265 272 265 248 243 206 252 225 358 254 57 13 326 321 334 351 294 327 43 161 200 172 213 296 308 211 286 315 93 82 295
318 322 325 322 325 332 333 337 336 336 337 338 339 341 344 346 349 355 277 292 335 294 296 327 240 244 256 239 199 162 265 213 286 163 214 239 288 26 50 294 300 286 227 167 357 228 260 294 315 86 59 242 269 47
316 314 307 310 321 329 330 331 331 331 331 329 331 333 334 333 332 334 284 276 260 287 296 282 314 305 290 282 186 206 234 291 258 114 217 233 229 184 228 201 185 226 347 189 248 279 267 266 262 16 20 351 18 120
309 303 298 315 323 326 326 324 325 324 321 320 322 325 328 331 326 314 234 239 247 221 298 293 309 256 283 257 231 204 219 230 229 276 205 238 251 297 266 140 233 180 197 178 231 218 211 230 280 337 44 334 45 196
296 291 298 308 314 322 323 320 321 320 317 314 314 315 318 325 333 349 12 73 27 3 346 307 294 297 303 310 312 264 210 201 175 170 217 225 226 131 250 243 265 212 206 203 233 191 214 212 237 256 153 347 60 154
271 277 291 302 312 321 323 319 318 316 313 309 308 305 303 306 326 202 213 233 331 6 310 298 299 274 285 280 348 359 337 293 162 216 217 199 255 173 233 261 258 275 265 257 223 171 286 271 213 307 190 170 248 194
256 272 285 303 314 320 323 319 318 313 309 307 302 299 296 294 278 280 248 251 205 179 285 291 276 316 352 3 324 15 316 349 282 218 251 187 325 155 265 257 255 262 236 240 248 209 233 288 333 340 283 154 191 190
256 275 289 303 313 322 325 322 318 313 310 304 302 302 338 113 247 247 91 122 148 147 270 264 286 289 336 308 271 332 59 322 303 280 256 113 216 217 225 233 265 273 245 248 255 248 265 258 267 266 285 88 106 125
260 279 287 299 313 324 324 321 322 320 313 309 316 38 304 266 127 113 53 136 151 271 235 254 266 267 348 322 296 343 340 254 304 252 331 195 239 244 283 263 14 310 311 309 279 286 240 246 231 232 183 130 113 111
263 272 283 302 314 320 321 324 328 328 338 19 5 311 282 289 13 211 245 209 153 228 203 236 227 241 286 285 252 229 288 272 299 276 56 302 301 321 353 315 263 274 292 255 245 271 279 252 210 221 160 153 139 142
254 262 283 298 307 313 318 323 332 346 69 236 259 281 293 305 271 324 259 224 188 243 208 226 260 229 275 79 49 302 272 341 255 294 100 262 320 322 311 297 332 321 307 299 304 292 273 210 207 199 156 174 153 150
249 268 282 294 300 305 308 312 314 299 306 265 197 256 158 307 325 234 251 345 322 289 256 309 310 271 337 31 292 339 293 243 345 29 277 319 306 317 310 321 340 304 302 336 328 347 316 177 163 172 187 179 180 174
261 280 293 297 295 293 293 297 325 329 332 260 234 288 190 219 237 234 263 255 248 208 270 271 266 299 295 318 285 281 251 310 278 294 240 289 301 302 318 308 352 3 287 300 335 25 345 223 196 195 175 147 182 193
274 293 303 297 284 277 297 273 290 296 258 263 241 243 231 235 293 222 178 240 266 250 22 350 8 44 294 307 259 291 289 251 33 220 304 320 306 311 323 347 7 333 346 338 312 339 349 232 183 186 176 170 158 178
311 308 243 255 306 305 311 266 224 225 266 239 246 288 283 312 315 328 308 257 219 255 84 61 11 336 356 332 282 320 338 22 306 308 304 305 325 332 337 341 335 323 227 263 254 109 334 49 19 320 165 159 105 240
316 251 358 341 327 310 270 229 229 220 251 240 253 233 237 266 249 251 257 284 341 74 286 90 341 264 281 277 272 351 288 308 282 293 299 298 308 312 314 319 302 322 328 337 17 94 92 44 19 32 20 342 205 204
244 165 337 340 344 278 230 195 244 242 244 245 247 261 260 249 260 274 248 282 62 206 162 211 147 47 292 262 270 253 284 279 279 275 287 292 303 301 316 314 323 332 341 8 24 65 114 115 119 343 121 37 123 58
290 307 306 319 333 298 255 227 190 257 248 236 258 267 250 258 257 248 257 274 218 203 126 124 161 196 223 215 232 249 241 232 264 288 292 288 285 299 312 317 338 10 38 31 30 38 342 277 161 161 128 81 44 23
280 278 272 266 253 275 267 264 207 244 271 251 301 281 259 249 250 243 261 247 152 96 339 240 211 218 204 233 264 257 255 239 262 309 315 322 328 328 335 325 302 322 338 41 11 39 12 60 257 310 65 81 71 351
275 292 179 163 221 209 277 275 270 221 270 280 275 330 273 277 282 273 258 201 159 182 213 234 245 285 299 266 252 233 276 259 227 232 273 304 312 322 317 335 0 12 38 10 7 16 0 339 313 73 142 65 118 183
265 333 158 195 257 219 240 234 220 271 302 247 304 214 254 258 253 244 204 141 214 221 192 213 227 240 304 313 306 299 279 297 276 266 288 290 306 320 315 216 36 59 77 79 18 333 300 295 298 334 74 139 150 191
302 171 250 203 233 249 258 212 224 242 262 278 327 277 258 263 246 45 117 130 290 274 274 207 226 237 256 288 319 318 299 295 304 294 288 287 299 60 36 4 16 0 319 341 131 263 307 307 241 86 52 74 88 57
264 244 236 228 189 255 269 233 230 254 269 275 250 285 282 252 303 342 224 173 251 306 301 275 250 328 338 343 323 300 319 347 325 349 8 26 79 29 208 201 251 298 251 287 299 346 1 16 73 86 24 52 78 97
247 263 126 250 276 249 242 237 206 215 253 260 249 250 262 360 319 270 136 41 33 335 321 351 59 47 13 313 307 314 309 351 6 301 307 330 174 274 336 332 344 309 312 315 16 29 28 34 17 349 31 50 36 32
233 232 182 233 216 210 253 312 6 26 248 252 259 268 348 189 270 17 11 327 329 274 299 23 8 340 333 303 305 297 301 336 9 180 279 260 322 149 1 321 47 356 1 64 83 60 40 30 26 27 29 16 5 18
239 255 228 223 242 283 293 297 306 290 285 265 266 323 275 297 100 228 213 216 225 256 304 315 323 306 283 294 280 281 304 310 282 255 275 272 267 181 186 104 45 269 322 45 62 67 55 38 28 30 32 25 23 25
242 267 227 256 225 223 233 245 259 256 230 239 340 275 302 210 239 221 210 220 197 344 339 307 280 291 291 298 312 336 333 313 301 300 315 336 6 28 23 8 10 355 17 40 35 52 41 23 26 38 42 46 51 36
237 245 207 257 246 206 221 217 240 233 250 224 272 275 264 274 307 190 240 236 304 311 288 295 301 303 342 15 21 353 2 358 39 46 46 55 30 354 340 17 27 33 29 47 44 49 27 42 52 59 56 69 66 49
245 231 257 255 225 226 223 205 236 245 253 260 262 331 316 293 252 244 262 253 219 216 223 222 267 274 273 9 328 68 40 32 34 53 66 50 342 302 348 9 12 9 26 70 68 50 59 59 58 54 55 49 38 35
236 193 203 224 240 251 252 261 302 330 282 254 270 255 280 286 300 259 239 217 204 207 185 216 237 237 350 326 131 102 59 7 22 29 32 20 6 8 0 5 14 35 62 70 67 68 69 66 67 62 56 48 34 35
193 196 200 232 255 228 58 56 322 275 289 270 258 214 279 270 258 247 204 167 118 141 197 209 154 122 108 88 83 87 101 78 45 30 30 28 23 10 16 20 36 60 72 65 62 61 66 65 59 53 48 39 24 18
210 245 234 225 213 155 43 90 259 283 253 252 254 206 222 234 51 165 231 222 175 186 159 143 124 120 125 122 126 124 119 119 116 85 59 56 49 39 35 35 50 61 63 70 67 63 70 67 55 55 48 37 25 17